星链-5298 (STARLINK-5298 )

导读 | 豆包AI

STARLINK-5298是美国SpaceX公司星链星座中的一颗卫星,于2023年1月19日发射升空。作为星链低轨互联网星座的组成部分,它运行在近地轨道,负责为全球尤其是地面网络覆盖缺失的偏远地区提供高速低延迟的宽带互联网服务,目前服务覆盖地面、海事、航空等多场景,助力实现全球泛在互联。

基本信息
目录编号:
55281
目录名称:
STARLINK-5298
国际标识:
2023-010N
轨道中心:
EARTH
卫星名称:
星链-5298
卫星全名:
星链-5298 (STARLINK-5298 )
卫星状态:
在轨 (已飞行1197 天)
发射日期:
2023-01-19 UTC
国别 :
美国 (US)
星等 :
--
轨道信息
数据来源 国际轨道数据
星历时间: 2026-04-30T01:49:38+0800
21小时前
查看轨道信息
半长轴: 6950.192km
偏心率: 0.0002619
轨道倾角: 69.999°
近地点辐角 267.826°
升交点赤经 275.710°
平近点角 92.260°
近地点: 570.234km
远地点: 573.876km
周期: 96.107分钟
每日圈数: 14.983303
详细信息
固有亮度:
5
最大亮度:
2.5
卫星平台:
Starlink v1.5
覆盖范围:
全球
运营商:
太空探索技术公司
运营商所在国:
美国
制造商(研发单位):
太空探索技术公司
制造商所在国:
美国
使用方式:
暂无
卫星简介
星链(Starlink)计划是由太空探索技术公司(SpaceX)提出的一个巨型低轨卫星互联网星座项目,计划在2019年至2024年间在太空搭建由约1.2万颗卫星组成的“星链”网络,其中1584颗将部署在地球上空550千米处的近地轨道,并从2020年开始工作。该卫星仍在工作。
2D轨道图
3D轨道图
轨道高度分析图
轨道倾角分析图
轨道综合分析图
查看轨道综合分析图